Location: Gleizolles
(44.4833°N, 6.7667°E)
Time: 07:07:47
(UTC+00:00)

CUBEBUG 2 - Visible Passes

Search period start: 16 July 2024 00:00
Search period end: 26 July 2024 00:00
Orbit: 569 x 666 km, 97.8° (Epoch: 15 July)

Date Brightness Start Highest point End Pass type
(mag) Time Alt. Az. Time Alt. Az. Time Alt. Az.
16 Jul ? 01:36:57 10° NNE 01:41:08 71° ESE 01:42:40 37° S visible
16 Jul ? 03:15:01 10° NW 03:16:37 12° WNW 03:18:11 10° W visible
17 Jul ? 01:53:31 10° N 01:57:42 76° WNW 01:59:21 35° SSW visible
18 Jul ? 00:35:28 10° NE 00:37:49 15° E 00:38:55 13° ESE visible
18 Jul ? 02:10:12 10° N 02:14:13 49° WNW 02:16:02 28° SW visible
19 Jul ? 00:51:18 10° NE 00:54:31 22° E 00:55:35 20° ESE visible
19 Jul ? 02:26:58 10° N 02:30:41 32° WNW 02:32:42 20° WSW visible
20 Jul ? 01:07:26 10° NNE 01:11:10 32° E 01:12:15 28° SE visible
20 Jul ? 02:43:51 10° NNW 02:47:05 22° WNW 02:49:21 14° WSW visible
21 Jul ? 01:23:45 10° NNE 01:27:46 49° E 01:28:53 37° SSE visible
21 Jul ? 03:00:58 10° NNW 03:03:26 16° WNW 03:05:53 10° W visible
22 Jul ? 01:40:11 10° NNE 01:44:19 77° ESE 01:45:32 44° S visible
22 Jul ? 03:18:43 10° NW 03:19:45 11° WNW 03:20:47 10° WNW visible
23 Jul ? 00:23:43 10° E 00:24:13 10° E 00:24:44 10° E visible
23 Jul ? 01:56:43 10° N 02:00:48 69° WNW 02:02:09 40° SW visible
24 Jul ? 00:38:25 10° NE 00:40:55 16° E 00:41:39 15° ESE visible
24 Jul ? 02:13:20 10° N 02:17:15 44° WNW 02:18:46 30° WSW visible
25 Jul ? 00:54:15 10° NE 00:57:32 23° E 00:58:16 22° ESE visible
25 Jul ? 02:30:04 10° N 02:33:39 30° WNW 02:35:23 21° WSW visible
